Location: Paris
(48.6709°N, 2.3750°E)
Time: 12:12:32
(UTC+02:00)

QB50P2 - Pass Details

Date: 27 June 2022
Orbit: 590 x 605 km, 97.9° (Epoch: 14 August)

Event Time Altitude Azimuth Distance (km) Brightness Sun altitude
Rises 02:58:16 0° 18° (NNE) 2,857 ? -16.6°
Reaches altitude 10° 03:00:30 10° 24° (NNE) 1,952 ? -16.5°
Maximum altitude 03:04:37 50° 99° (E) 774 ? -16.3°
Enters shadow 03:06:50 25° 164° (SSE) 1,231 ? -16.2°
